Torna al catalogo

DELTA 1 DEB

AttivoSSO
NORAD 21754·DEBRIS·🇺🇸 United States

Lanciato Jun 12, 1975 da Vandenberg Space Force Base

Loading…

Prossimi Passaggi (prossime 24 ore)

TLE

AggiornatoSource: Space-Track

Epoca: Sep 14, 2026, 14:04 UTC

1 21754U 75052JQ  26257.58633293  .00000116  00000-0  30932-3 0  9997
2 21754 100.0475 180.1198 0076268 107.1432  66.1383 13.35347834709221

Traccia DELTA 1 DEB in tempo reale con AllMySat

Download on the App Store